Weather History for Salem, IL

Change the Weather History Date:

Tuesday, July 23, 2013

  Actual Average Record
Temperature  
Mean Temperature 82 °F -  
Max Temperature 91 °F 88 °F 102 °F (1983)
Min Temperature 72 °F 66 °F 57 °F (2006)
Cooling Degree Days 16    
Growing Degree Days 32 (Base 50)    
Moisture  
Dew Point 73 °F    
Average Humidity 79    
Maximum Humidity 100    
Minimum Humidity 58    
Precipitation  
Precipitation 0.00 in - - ()
Sea Level Pressure  
Sea Level Pressure 29.84 in    
Wind  
Wind Speed 4 mph (WNW)    
Max Wind Speed 12 mph    
Max Gust Speed 17 mph    
Visibility 9 miles    
Events      
Averages and records for this station are not official NWS values.
T = Trace of Precipitation, MM = Missing Value Source: NWS Daily Summary

Daily Weather History Graph

Daily Weather History Graph

Search for Another Location

Airport:

Trip Planner

Search our weather history database for the weather conditions in past years. The results will help you decide how hot, cold, wet, or windy it might be!

Date:

Astronomy

Jul. 23, 2013 Rise Set
Actual Time 5:49 AM CDT 8:14 PM CDT
Civil Twilight 5:19 AM CDT 8:44 PM CDT
Nautical Twilight 4:42 AM CDT 9:21 PM CDT
Astronomical Twilight 4:00 AM CDT 10:03 PM CDT
Moon 8:44 PM CDT 6:57 AM CDT
Length of Visible Light 15h 24m
Length of Day
14h 24m
Full, 99% of the Moon is Illuminated
Jul 23
Full
Jul 29
Last Quarter
Aug 6
New
Aug 14
First Quarter
Aug 20
Full

Hourly Weather History & Observations

Time (CDT) Temp. Heat Index Dew Point Humidity Pressure Visibility Wind Dir Wind Speed Gust Speed Precip Events Conditions
12:15 AM 77.4 °F - 73.6 °F 88% 29.86 in 7.0 mi SSW 4.6 mph - N/A   Clear
12:35 AM 76.8 °F - 73.6 °F 90% 29.85 in 7.0 mi Calm Calm - N/A   Clear
12:55 AM 75.6 °F - 73.6 °F 94% 29.85 in 7.0 mi Calm Calm - N/A   Clear
1:15 AM 73.9 °F - 73.9 °F 100% 29.85 in 4.0 mi Calm Calm - N/A   Clear
1:35 AM 73.4 °F - 73.4 °F 100% 29.85 in 4.0 mi Calm Calm - N/A   Clear
1:55 AM 72.9 °F - 72.9 °F 100% 29.84 in 4.0 mi Calm Calm - N/A   Clear
2:15 AM 73.2 °F - 73.2 °F 100% 29.85 in 7.0 mi Calm Calm - N/A   Clear
2:35 AM 74.5 °F - 74.5 °F 100% 29.84 in 7.0 mi Calm Calm - N/A   Clear
2:55 AM 73.4 °F - 73.4 °F 100% 29.85 in 4.0 mi Calm Calm - N/A   Clear
3:15 AM 73.0 °F - 73.0 °F 100% 29.85 in 4.0 mi Calm Calm - N/A   Clear
3:35 AM 75.2 °F - 75.2 °F 100% 29.84 in 5.0 mi SSW 4.6 mph - N/A   Clear
3:55 AM 75.6 °F - 75.6 °F 100% 29.83 in 5.0 mi South 3.5 mph - N/A   Clear
4:15 AM 75.7 °F - 75.7 °F 100% 29.82 in 7.0 mi South 3.5 mph - N/A   Clear
4:35 AM 75.6 °F - 75.6 °F 100% 29.79 in 5.0 mi South 5.8 mph - N/A   Clear
4:55 AM 75.7 °F - 75.7 °F 100% 29.80 in 7.0 mi Calm Calm - N/A   Clear
5:15 AM 74.8 °F - 74.8 °F 100% 29.79 in 5.0 mi Calm Calm - N/A   Clear
5:35 AM 74.3 °F - 74.3 °F 100% 29.80 in 5.0 mi Calm Calm - N/A   Clear
5:55 AM 74.3 °F - 74.3 °F 100% 29.80 in 5.0 mi South 4.6 mph - N/A   Unknown
6:15 AM 74.8 °F - 74.8 °F 100% 29.81 in 5.0 mi Calm Calm - N/A   Clear
6:35 AM 75.2 °F - 75.2 °F 100% 29.82 in 5.0 mi South 3.5 mph - N/A   Clear
6:55 AM 75.7 °F - 75.7 °F 100% 29.82 in 7.0 mi South 3.5 mph - N/A   Clear
7:15 AM 76.8 °F - 76.1 °F 98% 29.82 in 7.0 mi SSW 3.5 mph - N/A   Clear
7:35 AM 77.7 °F - 75.6 °F 93% 29.83 in 10.0 mi SW 8.1 mph - N/A   Clear
7:55 AM 78.4 °F - 75.4 °F 90% 29.83 in 10.0 mi SW 6.9 mph - N/A   Clear
8:15 AM 79.5 °F - 75.0 °F 86% 29.84 in 10.0 mi SW 5.8 mph - N/A   Clear
8:35 AM 80.2 °F 85.2 °F 74.7 °F 83% 29.84 in 10.0 mi WSW 6.9 mph - N/A   Clear
8:55 AM 81.3 °F 87.4 °F 74.8 °F 81% 29.85 in 10.0 mi WSW 8.1 mph - N/A   Clear
9:15 AM 82.4 °F 89.0 °F 74.5 °F 77% 29.85 in 10.0 mi SW 9.2 mph - N/A   Clear
9:35 AM 83.5 °F 90.6 °F 74.3 °F 74% 29.85 in 10.0 mi WSW 4.6 mph - N/A   Clear
9:55 AM 84.4 °F 92.0 °F 74.7 °F 72% 29.85 in 10.0 mi WSW 5.8 mph - N/A   Clear
10:15 AM 84.9 °F 93.3 °F 74.8 °F 72% 29.85 in 10.0 mi SSW 4.6 mph - N/A   Clear
10:35 AM 85.5 °F 93.8 °F 74.7 °F 70% 29.85 in 10.0 mi SW 3.5 mph - N/A   Clear
10:55 AM 86.7 °F 95.9 °F 75.2 °F 68% 29.85 in 10.0 mi WSW 4.6 mph - N/A   Clear
11:15 AM 86.9 °F 95.9 °F 74.8 °F 67% 29.85 in 10.0 mi WSW 6.9 mph - N/A   Clear
11:35 AM 87.4 °F 97.2 °F 75.2 °F 67% 29.85 in 10.0 mi WSW 8.1 mph - N/A   Clear
11:55 AM 88.2 °F 98.5 °F 75.4 °F 66% 29.85 in 10.0 mi WSW 10.4 mph - N/A   Clear
12:15 PM 88.2 °F 98.0 °F 75.2 °F 65% 29.85 in 10.0 mi West 6.9 mph - N/A   Clear
12:35 PM 88.7 °F 99.8 °F 75.9 °F 66% 29.84 in 10.0 mi West 9.2 mph - N/A   Clear
12:55 PM 89.1 °F 99.1 °F 75.0 °F 63% 29.83 in 10.0 mi West 9.2 mph - N/A   Clear
1:15 PM 89.4 °F 98.9 °F 74.5 °F 61% 29.83 in 10.0 mi West 8.1 mph - N/A   Clear
1:35 PM 89.4 °F 99.4 °F 74.7 °F 62% 29.81 in 10.0 mi West 8.1 mph 16.1 mph N/A   Clear
1:55 PM 90.1 °F 100.6 °F 74.8 °F 61% 29.82 in 10.0 mi West 10.4 mph - N/A   Clear
2:15 PM 91.2 °F 102.0 °F 74.8 °F 59% 29.82 in 10.0 mi WNW 11.5 mph 17.3 mph N/A   Scattered Clouds
2:35 PM 90.0 °F 101.9 °F 76.5 °F 64% 29.81 in 10.0 mi WNW 4.6 mph - N/A   Scattered Clouds
3:15 PM 90.3 °F 102.9 °F 76.6 °F 64% 29.81 in 10.0 mi NNW 9.2 mph - N/A   Mostly Cloudy
3:35 PM 89.2 °F 101.8 °F 76.8 °F 67% 29.81 in 10.0 mi NNW 9.2 mph - N/A   Mostly Cloudy
3:55 PM 89.4 °F 99.4 °F 75.0 °F 62% 29.81 in 10.0 mi NNW 9.2 mph - N/A   Scattered Clouds
4:15 PM 88.0 °F 99.1 °F 76.3 °F 68% 29.81 in 10.0 mi NNW 8.1 mph - N/A   Mostly Cloudy
4:35 PM 88.9 °F 100.9 °F 76.5 °F 67% 29.81 in 10.0 mi North 10.4 mph - N/A   Scattered Clouds
4:55 PM 88.0 °F 98.0 °F 75.4 °F 66% 29.81 in 10.0 mi NW 9.2 mph - N/A   Scattered Clouds
5:15 PM 87.3 °F 94.9 °F 73.2 °F 63% 29.81 in 10.0 mi NW 10.4 mph 16.1 mph N/A   Clear
5:35 PM 87.1 °F 93.6 °F 72.0 °F 61% 29.80 in 10.0 mi North 10.4 mph 16.1 mph N/A   Clear
5:55 PM 86.4 °F 91.1 °F 70.2 °F 58% 29.81 in 10.0 mi NNW 8.1 mph - N/A   Clear
6:15 PM 86.0 °F 91.1 °F 70.7 °F 60% 29.80 in 10.0 mi NNW 8.1 mph - N/A   Clear
6:35 PM 85.3 °F 90.8 °F 71.4 °F 63% 29.80 in 10.0 mi North 6.9 mph - N/A   Clear
6:55 PM 84.7 °F 89.7 °F 70.9 °F 63% 29.81 in 10.0 mi North 8.1 mph - N/A   Clear
7:15 PM 83.7 °F 88.6 °F 71.4 °F 66% 29.83 in 10.0 mi NW 6.9 mph - N/A   Clear
7:35 PM 82.4 °F 87.2 °F 71.6 °F 70% 29.83 in 10.0 mi NW 4.6 mph - N/A   Clear
7:55 PM 80.6 °F 84.9 °F 72.5 °F 76% 29.84 in 10.0 mi North 5.8 mph - N/A   Clear
8:15 PM 79.9 °F - 71.1 °F 74% 29.84 in 10.0 mi North 9.2 mph - N/A   Scattered Clouds
8:35 PM 79.2 °F - 69.3 °F 72% 29.84 in 10.0 mi North 9.2 mph - N/A   Scattered Clouds
8:55 PM 78.8 °F - 68.2 °F 70% 29.86 in 10.0 mi North 6.9 mph - N/A   Clear
9:15 PM 77.9 °F - 68.2 °F 72% 29.87 in 10.0 mi North 6.9 mph - N/A   Clear
9:35 PM 77.7 °F - 68.0 °F 72% 29.88 in 10.0 mi North 6.9 mph - N/A   Clear
9:55 PM 77.0 °F - 68.0 °F 74% 29.89 in 10.0 mi Calm Calm - N/A   Clear
10:15 PM 76.6 °F - 67.8 °F 74% 29.90 in 10.0 mi North 4.6 mph - N/A   Clear
10:35 PM 76.5 °F - 66.9 °F 72% 29.91 in 10.0 mi NNE 9.2 mph - N/A   Clear
10:55 PM 75.4 °F - 66.2 °F 73% 29.91 in 10.0 mi NNE 4.6 mph - N/A   Clear
11:15 PM 74.7 °F - 66.2 °F 75% 29.91 in 10.0 mi NNE 6.9 mph - N/A   Mostly Cloudy
11:35 PM 73.9 °F - 65.5 °F 75% 29.91 in 10.0 mi NNE 5.8 mph - N/A   Scattered Clouds
11:55 PM 73.0 °F - 65.3 °F 77% 29.91 in 10.0 mi NNE 5.8 mph - N/A   Clear